User: anonymous   Login
Location: Passau
(48.5830°N, 13.4830°E)
Time: 05:47:32
(UTC+02:00)
Language:

Courier 1B - Orbit

View from above orbital plane
View from above orbital plane
View from above satellite
View from above satellite

Ground track
Ground track

The orbit data is extracted from the following two-line orbital elements,

1    58U 60013A   24141.86972158  .00000144  00000-0  93348-4 0  9991
2    58  28.3292  22.3422 0164786  57.0065 304.6202 13.46375846132461
Epoch (UTC): 20 May 2024 20:52:23
Eccentricity: 0.0164786
inclination: 28.3292°
perigee height: 962 km
apogee height: 1208 km
right ascension of ascending node: 22.3422°
argument of perigee: 57.0065°
revolutions per day: 13.46375846
mean anomaly at epoch: 304.6202°
orbit number at epoch: 13246

The dashed part of the orbit path shows where the satellite is in the earth's shadow,  

DLR